Regional Weather Roundup
Issued by NWS San Diego, CA

Home | Current Version | Previous Version | Text Only | Print | Product List | Glossary On
Versions: 1 2 3 4 5 6 7 8 9 10 11 12 13 14 15 16 17 18 19 20 21 22 23 24 25 26 27 28
000
ASUS46 KSGX 300511
RWRSGX

SAN DIEGO HOURLY WEATHER ROUNDUP
NATIONAL WEATHER SERVICE SAN DIEGO CA
1000 PM PDT WED MAR 29 2017

NOTE: "FAIR" INDICATES FEW OR NO CLOUDS BELOW 12,000 FEET WITH NO
SIGNIFICANT WEATHER AND/OR OBSTRUCTIONS TO VISIBILITY.

CAZ042-043-060-061-PZZ750-775-300600-

GREATER SAN DIEGO AREA

CITY           SKY/WX    TMP DP  RH WIND       PRES   REMARKS
SAN DIEGO AP   PTCLDY    66  47  50 CALM      30.04S
NATIONAL CITY    N/A     66  52  61 CALM      30.04R
CHULA VISTA      N/A     63  53  70 CALM      29.96R
IMPERIAL BEACH PTCLDY    53  49  86 CALM      30.04S
BROWN FIELD    CLEAR     55  48  77 SE5       30.04S
MIRAMAR MCAS   CLEAR     57  44  62 E8        30.03F
MONTGOMERY FLD CLEAR     62  44  51 NE3       30.04S

$$

NORTH SAN DIEGO COUNTY

CITY           SKY/WX    TMP DP  RH WIND       PRES   REMARKS
CAMP PENDLETON PTCLDY    54  51  90 CALM      30.03R
OCEANSIDE AP   CLEAR     55  52  89 CALM      30.02R
OCEANSIDE HBR    N/A     60  56  85 SW1       30.05R
VISTA            N/A     58  47  66 CALM      30.01R
CARLSBAD       CLEAR     62  53  72 SE3       30.02S
DEL MAR          N/A     60  49  66 CALM      30.05S
LA JOLLA SCRIP   N/A     65  47  52 NE3       30.02F
FALLBROOK        N/A     60  52  74 CALM      30.01S
ESCONDIDO        N/A     65  42  43 CALM      30.04S
SAN MARCOS       N/A     63  44  50 CALM      30.04R
POWAY            N/A     58  43  59 CALM      30.05S

$$

EAST SAN DIEGO COUNTY

CITY           SKY/WX    TMP DP  RH WIND       PRES   REMARKS
RAMONA         CLEAR     50  43  77 CALM      30.06S
SANTEE LAKES     N/A     58  42  56 W3        30.03R
LA MESA          N/A     65  38  37 CALM      29.97R
JAMUL            N/A     58  39  49 CALM      30.05R
DESCANSO N       N/A     47  36  64 NE3       30.00S
CAMPO            N/A     49  35  58 NE6       30.07R

$$

ORANGE COUNTY AND THE LOS ANGELES BASIN

CITY           SKY/WX    TMP DP  RH WIND       PRES   REMARKS
JOHN WAYNE AP  PTCLDY    67  44  43 CALM      30.01S
LAGUNA BEACH     N/A    N/A N/A N/A NW3       29.96S
LAKE FOREST FR   N/A     65  29  26 N3        29.89F
HUNTINGTON BCH   N/A     60  56  88 CALM      30.02S
LOS ALAMITOS   PTCLDY    59  51  77 CALM      30.01S
FULLERTON      CLEAR     67  48  50 SE3       30.00S
LONG BEACH     CLEAR     66  45  46 CALM      30.01R
L.A. AP        CLEAR     63  54  72 CALM      30.00F
L.A. DOWNTOWN  CLEAR     65  50  58 CALM      30.00S

$$

THE INLAND EMPIRE

CITY           SKY/WX    TMP DP  RH WIND       PRES   REMARKS
CORONA         CLEAR     59  39  47 CALM      30.03R
CHINO          CLEAR     62  43  49 CALM      30.04R
ONTARIO        CLEAR     66  34  30 W3        30.03R
SAN BERNARDINO FAIR      67  35  30 CALM      30.05
RIVERSIDE AP   CLEAR     67  39  35 CALM      30.03R
MORENO VALLEY    N/A     66  43  42 CALM      28.17R
MARCH ARB      CLEAR     54  38  55 NW3       30.04S
HORSETHIEF CYN   N/A     63  28  27 CALM      30.04R
PERRIS           N/A     66  40  38 CALM      30.04R
HEMET EAST       N/A     62  34  34 CALM      30.09S
FRENCH VALLEY  FAIR      61  41  48 CALM      30.05S
TEMECULA         N/A     64  44  48 E1        30.09R

$$

SAN BERNARDINO AND RIVERSIDE COUNTY MOUNTAINS

CITY           SKY/WX    TMP DP  RH WIND       PRES   REMARKS
BIG BEAR AP    CLEAR     39  28  65 CALM      30.24R
PINE COVE        N/A     50  31  48 N3        30.05S

$$

SOUTHERN DESERT INCLUDING THE COACHELLA VALLEY

CITY           SKY/WX    TMP DP  RH WIND       PRES   REMARKS
PALM SPRINGS   CLEAR     80  34  19 W7        29.95S
PALM DESERT      N/A     76  37  24 CALM      29.83S
THERMAL        CLEAR     64  39  39 N5        29.90S
BLYTHE         PTCLDY    69  28  21 VRB3      29.93R
IMPERIAL AP    PTCLDY    72  32  23 SW5       29.92R
EL CENTRO NAS  PTCLDY    69  24  18 SW8       29.93S
YUMA AZ        CLEAR     71  35  26 W5        29.93
MEXICALI       CLEAR     68  30  24 S6        29.93R

$$

UPPER DESERT

CITY           SKY/WX    TMP DP  RH WIND       PRES   REMARKS
VICTORVILLE AP CLEAR     57  39  51 W10       30.08S
HESPERIA         N/A     62  31  31 N1        30.18R
PALMDALE       CLEAR     60  43  53 W3        30.07F
LANCASTER      CLEAR     62  37  39 W18       30.06F
EDWARDS AFB    PTCLDY    60  41  50 S7        30.04R
DAGGETT        CLEAR     65  26  23 W8        30.01R
29 PALMS N     CLEAR     65  23  20 VRB3      30.07F
NEEDLES        CLEAR     71  23  16 W10       29.95S

$$

REGIONAL REPORTS

CITY           SKY/WX    TMP DP  RH WIND       PRES   REMARKS
SANTA BARBARA  CLEAR     58  56  93 VRB3      29.99R
SANDBERG       CLEAR     53  39  59 N15G22    30.17R
LAS VEGAS NV   PTCLDY    68  26  20 SW5       29.98S
PHOENIX AZ     CLEAR     74  23  15 SW6       29.93S
TIJUANA        PTCLDY    61  46  59 CALM      30.07R
ENSENADA NW      N/A     62  32  33 CALM      30.03R

$$

OFFSHORE ISLANDS

CITY           SKY/WX    TMP DP  RH WIND       PRES   REMARKS
CATALINA ARPT  NOT AVBL
SAN NICOLAS IS CLEAR    N/A N/A N/A W13       30.01S

$$

MARINE AND OFFSHORE BUOY REPORTS

STATION/POSITION SKY/WX   TEMP    WIND        PRES    VSBY  SWELL
                          AIR SEA DIR/SP/G                  HT/PER/DIR
                          (F)     (DEG/KT/KT) (MB)    (MI)  (FT/S/D)
TANNER BANKS               58 59  310/ 14/ 16 1016.9          8/310/16
S CLEMENTE BASIN           61 61  260/  6/  8 1016.6F         7/280/17
SAN NICOLAS IS.               57                N/A           8/290/17
SO. S. ROSA ISLA           57 56  320/ 19/ 23 1016.3R        10/280/16
W. S. BARBARA CH           56 54  330/ 27/ 33 1016.1          8/280/16
M. S. BARBARA CH                                N/A           7/250/16
S. MONICA BASIN            61 61   80/  4/  6 1015.4S         3/250/16
S PEDRO CHANNEL               61                N/A           3/270/17
CMP PENDLETON NS              61                N/A           2/230/15
OCEANSIDE OFFSHR              62                N/A           2/250/17
TORREY PINES OTR              63                N/A           3/270/17
POINT LOMA SOUTH              63                N/A           5/280/17

$$





USA.gov is the U.S. government's official web portal to all federal, state and local government web resources and services.